Regional Weather Roundup
Issued by NWS

Home | Current Version | Previous Version | Graphics & Text | Print | Product List | Glossary On
Versions: 1 2 3 4 5 6 7 8 9 10 11 12 13 14 15 16 17 18 19 20 21 22 23 24 25 26 27 28 29 30 31 32 33 34 35 36 37 38 39 40 41 42 43 44 45 46 47 48 49 50
000
ASUS43 KDTX 310910
RWRMI
MICHIGAN HOURLY REGIONAL WEATHER ROUNDUP
NATIONAL WEATHER SERVICE DETROIT/PONTIAC MI
400 AM EST SAT JAN 31 2015

NOTE: "FAIR" INDICATES FEW OR NO CLOUDS BELOW 12,000 FEET WITH NO
SIGNIFICANT WEATHER AND/OR OBSTRUCTION TO VISIBILITY.

MIZ047>049-052>055-059>063-066>070-074>076-081>083-311000-
SOUTHEAST LOWER MICHIGAN

CITY           SKY/WX    TMP DP  RH WIND       PRES   REMARKS
ADRIAN         MOCLDY    13   9  84 CALM      30.34F
ALMA           CLOUDY    18  14  84 S5        30.28F
ANN ARBOR      CLEAR      6   2  83 CALM      30.32F
BAD AXE        PTCLDY     2  -1  86 S3        30.30F
DETROIT CITY   MOCLDY    17   8  67 S5        30.34F
DETROIT        PTCLDY    12   7  80 CALM      30.35F
FLINT          CLOUDY    15   8  73 S6        30.31F
GROSSE ILE     CLEAR     16  10  79 S6        30.33F
HILLSDALE      CLEAR     14  11  87 CALM      30.29S
HOWELL         CLOUDY    13   8  80 S5        30.30S

CITY           SKY/WX    TMP DP  RH WIND       PRES   REMARKS
JACKSON        CLOUDY    13   9  84 CALM      30.31S
LAMBERTVILLE   CLEAR     14  10  85 CALM      30.35F
LANSING        CLOUDY    18  12  77 S8        30.30F
LAPEER         NOT AVBL
MASON          CLOUDY    13   9  82 S5        30.30S
MT. CLEMENS    CLOUDY    10   5  81 CALM      30.32F
PONTIAC        MOCLDY     8   3  80 CALM      30.30F
PORT HOPE        N/A      8   0  69 SW7       30.29F
PORT HURON     CLEAR      0  -4  85 CALM      30.34S
TRI CITIES     CLOUDY    17  10  74 S6        30.29F
YPSILANTI      PTCLDY    15   6  67 SE6       30.34F
$$
MIZ043>046-050>051-056>058-064>065-071>073-077>080-311000-
SOUTHWEST LOWER MICHIGAN

CITY           SKY/WX    TMP DP  RH WIND       PRES   REMARKS
BATTLE CREEK   MOCLDY    16  11  80 S3        30.30S
BENTON HARBOR  CLEAR     17  13  84 S5        30.31F
BIG RAPIDS     CLOUDY    14  11  87 CALM      30.23F
COLDWATER      PTCLDY    15  11  85 CALM      30.30S
HOLLAND        PTCLDY    20  14  77 S9        30.28F
GRAND RAPIDS   MOCLDY    20  14  77 S9        30.28F
KALAMAZOO      MOCLDY    16  12  84 S6        30.30F
MARSHALL       PTCLDY     8   5  89 CALM      30.30S
MUSKEGON       CLOUDY    28  18  66 SW9       30.26F
$$
MIZ016>042-311000-
NORTHERN LOWER MICHIGAN

CITY           SKY/WX    TMP DP  RH WIND       PRES   REMARKS
ALPENA         CLOUDY     7   2  80 S5        30.24F
BEAVER ISLAND  LGT SNOW  21  18  89 W15G21    30.18F
CADILLAC       CLOUDY    14  10  82 SW7       30.18F
CHARLEVOIX     LGT SNOW  16  13  89 S6        30.22F
FRANKFORT      CLOUDY    19  13  79 SE8       30.21F
GAYLORD        LGT SNOW  12  10  92 S6        30.17S FOG
GRAYLING       FLURRIES  13   9  82 S3        30.20F
HARBOR SPRINGS LGT SNOW  16  12  84 CALM      30.19F
HOUGHTON LAKE  CLOUDY    14   8  77 CALM      30.21F
MANISTEE       MOCLDY    12   7  79 SE3       30.23F
OSCODA         CLOUDY    10   4  79 CALM      30.27F
PELLSTON       LGT SNOW  13  10  88 SE5       30.20F FOG
TRAVERSE CITY  CLOUDY    17  10  74 CALM      30.21F
$$
MIZ007>008-015-311000-
EASTERN UPPER MICHIGAN

CITY           SKY/WX    TMP DP  RH WIND       PRES   REMARKS
KINROSS        CLOUDY    12  10  92 SE8       30.17F
MACKINAC ISLAN LGT SNOW  15  11  87 S8        30.18F
NEWBERRY       LGT SNOW  15  13  92 S12       30.14F
S. S. MARIE    LGT SNOW  10   6  84 E3        30.18F FOG
$$
MIZ004>006-011>014-085-311000-
CENTRAL UPPER MICHIGAN

CITY           SKY/WX    TMP DP  RH WIND       PRES   REMARKS
MANISTIQUE     FLURRIES  18  15  88 SW3       30.16F
ESCANABA       CLOUDY    19   9  63 SW7       30.16F
MENOMINEE      CLOUDY    19  10  68 SW9       30.16F
SAWYER-GWINN   CLOUDY    15  12  88 S6        30.09F
$$
MIZ001>003-009>011-084-311000-
WESTERN UPPER MICHIGAN

CITY           SKY/WX    TMP DP  RH WIND       PRES   REMARKS
IRON MOUNTAIN  CLOUDY    17   8  67 S3        30.09F
HOUGHTON       CLOUDY    16  11  80 SW5       30.05F
COPPER HARBOR    N/A     17  12  80 VRB7      30.07F
IRONWOOD       CLOUDY    19  16  86 SW5       30.06S
$$

ABBREVIATIONS USED IN REMARKS
   TC - TEMPERATURE IN CELSIUS
  WCI - WIND CHILL INDEX
   HX - HEAT INDEX
  VSB - VISIBILITY



USA.gov is the U.S. government's official web portal to all federal, state and local government web resources and services.